Back to catalog

FENGYUN 1C DEB

AlivePO
NORAD 31919·DEBRIS·🇨🇳 China

Launched May 10, 1999 from Taiyuan Satellite Launch Center

Loading…

Next Passes (next 24 hours)

TLE

FreshSource: Space-Track

Epoch: Sep 11, 2026, 05:18 UTC

1 31919U 99025CLW 26254.22119756  .00000715  00000-0  20056-3 0  9999
2 31919  99.1357  62.1265 0102293 117.5240  57.3142 14.46453279 10208

Track FENGYUN 1C DEB in real time with AllMySat

Download on the App Store